[TLELIST] Archives

 

[TLELIST] Current TLEs

September 9th 2025 PST

0 HST 1 20580U 90037B 25252.22957136 .00006346 00000-0 22987-3 0 9995 2 20580 28.4680 194.8891 0002102 281.4478 78.5881 15.26252045745537 0 ISS (ZARYA) 1 25544U 98067A 25252.19474949 .00008866 00000-0 16199-3 0 9990 2 25544 51.6325 250.6930 0004281 318.3144 41.7518 15.50201228528195 0 CXO 1 25867U 99040B 25254.06208417 .00001005 00000-0 00000-0 0 9992 2 25867 51.2313 126.0722 8294853 310.3060 0.6801 0.37809756 16262 ...Continue Reading

[TLELIST] Current TLEs

September 8th 2025 PST

0 HST 1 20580U 90037B 25251.24874103 .00007489 00000-0 27278-3 0 9995 2 20580 28.4678 201.5468 0002072 269.0890 90.9467 15.26240338745389 0 ISS (ZARYA) 1 25544U 98067A 25251.16330099 .00009791 00000-0 17817-3 0 9999 2 25544 51.6324 255.8058 0004236 313.9942 46.0697 15.50181910528033 0 CXO 1 25867U 99040B 25254.06208417 .00001005 00000-0 00000-0 0 9992 2 25867 51.2313 126.0722 8294853 310.3060 0.6801 0.37809756 16262 ...Continue Reading

[TLELIST] Current TLEs

September 7th 2025 PST

0 HST 1 20580U 90037B 25250.20251318 .00008224 00000-0 30046-3 0 9992 2 20580 28.4676 208.6484 0002074 256.7198 103.3166 15.26223994745226 0 ISS (ZARYA) 1 25544U 98067A 25250.13183880 .00010763 00000-0 19518-3 0 9990 2 25544 51.6324 260.9183 0004211 310.5120 49.5502 15.50160381527876 0 CXO 1 25867U 99040B 25251.41854089 .00001104 00000-0 00000-0 0 9990 2 25867 51.1350 126.2465 8296128 310.2379 0.8476 0.37803582 16257 ...Continue Reading

[TLELIST] Current TLEs

September 6th 2025 PST

0 HST 1 20580U 90037B 25249.22166405 .00009038 00000-0 33109-3 0 9991 2 20580 28.4674 215.3064 0002083 244.8290 115.2089 15.26208685745073 0 ISS (ZARYA) 1 25544U 98067A 25249.16482935 .00011253 00000-0 20385-3 0 9993 2 25544 51.6328 265.7109 0004205 306.5919 53.4683 15.50137885527726 0 CXO 1 25867U 99040B 25251.41854089 .00001104 00000-0 00000-0 0 9990 2 25867 51.1350 126.2465 8296128 310.2379 0.8476 0.37803582 16257 ...Continue Reading

[TLELIST] Current TLEs

September 5th 2025 PST

0 HST 1 20580U 90037B 25248.24080441 .00008540 00000-0 31261-3 0 9991 2 20580 28.4673 221.9649 0002103 233.9038 126.1362 15.26191651744928 0 ISS (ZARYA) 1 25544U 98067A 25248.13333647 .00010878 00000-0 19750-3 0 9990 2 25544 51.6332 270.8228 0004213 301.3502 58.7074 15.50112942527561 0 CXO 1 25867U 99040B 25248.77409274 .00001139 00000-0 00000-0 0 9995 2 25867 51.0741 126.3700 8297040 310.2285 0.7876 0.37798976 16245 ...Continue Reading

[TLELIST] Current TLEs

September 5th 2025 PST

0 HST 1 20580U 90037B 25248.24080441 .00008540 00000-0 31261-3 0 9991 2 20580 28.4673 221.9649 0002103 233.9038 126.1362 15.26191651744928 0 ISS (ZARYA) 1 25544U 98067A 25248.13333647 .00010878 00000-0 19750-3 0 9990 2 25544 51.6332 270.8228 0004213 301.3502 58.7074 15.50112942527561 0 CXO 1 25867U 99040B 25248.77409274 .00001139 00000-0 00000-0 0 9995 2 25867 51.0741 126.3700 8297040 310.2285 0.7876 0.37798976 16245 ...Continue Reading

[TLELIST] Current TLEs

September 4th 2025 PST

0 HST 1 20580U 90037B 25247.25993454 .00008821 00000-0 32330-3 0 9998 2 20580 28.4674 228.6226 0002145 222.1583 137.8847 15.26174491744778 0 ISS (ZARYA) 1 25544U 98067A 25247.10182809 .00011777 00000-0 21333-3 0 9997 2 25544 51.6327 275.9345 0004179 299.5263 60.5309 15.50088696528307 0 CXO 1 25867U 99040B 25248.77409274 .00001139 00000-0 00000-0 0 9995 2 25867 51.0741 126.3700 8297040 310.2285 0.7876 0.37798976 16245 ...Continue Reading

[TLELIST] Current TLEs

September 4th 2025 PST

0 HST 1 20580U 90037B 25247.25993454 .00008821 00000-0 32330-3 0 9998 2 20580 28.4674 228.6226 0002145 222.1583 137.8847 15.26174491744778 0 ISS (ZARYA) 1 25544U 98067A 25247.10182809 .00011777 00000-0 21333-3 0 9997 2 25544 51.6327 275.9345 0004179 299.5263 60.5309 15.50088696528307 0 CXO 1 25867U 99040B 25248.77409274 .00001139 00000-0 00000-0 0 9995 2 25867 51.0741 126.3700 8297040 310.2285 0.7876 0.37798976 16245 ...Continue Reading

[TLELIST] Current TLEs

September 3rd 2025 PST

0 HST 1 20580U 90037B 25246.27905382 .00012679 00000-0 46824-3 0 9991 2 20580 28.4674 235.2806 0002177 211.3015 148.7451 15.26158847744624 0 ISS (ZARYA) 1 25544U 98067A 25246.19936559 .00014267 00000-0 25396-3 0 9994 2 25544 51.6337 280.4082 0003342 309.8573 50.2122 15.50393129527260 0 CXO 1 25867U 99040B 25248.77409274 .00001139 00000-0 00000-0 0 9995 2 25867 51.0741 126.3700 8297040 310.2285 0.7876 0.37798976 16245 ...Continue Reading

[TLELIST] Current TLEs

September 2nd 2025 PST

0 HST 1 20580U 90037B 25245.10197979 .00011533 00000-0 42555-3 0 9992 2 20580 28.4674 243.2692 0002265 198.1595 161.8919 15.26133104744443 0 ISS (ZARYA) 1 25544U 98067A 25245.16804060 .00013303 00000-0 23759-3 0 9992 2 25544 51.6340 285.5207 0003373 305.3341 54.7332 15.50365526527102 0 CXO 1 25867U 99040B 25246.12961281 .00001069 00000-0 00000-0 0 9995 2 25867 51.0271 126.4591 8300686 310.2477 0.7085 0.37798972 16233 ...Continue Reading
  • This mailing list is a public mailing list - anyone may join or leave, at any time.
  • This mailing list is announce-only.

International Space Station (ISS) / Hubble Space Telescope (HST) / Chandra X-Ray Observatory Orbital Data via EMAIL

Privacy Policy:

Private list